Year,Month,Day,Hour,Minute,Value (Times are PST for temperature in C)
2014,08,28,00,00,15.70
2014,08,28,00,01,15.70
2014,08,28,00,02,15.70
2014,08,28,00,03,15.70
2014,08,28,00,04,15.70
2014,08,28,00,05,15.70
2014,08,28,00,06,15.70
2014,08,28,00,07,15.70
2014,08,28,00,08,15.70
2014,08,28,00,09,15.60
2014,08,28,00,10,15.60
2014,08,28,00,11,15.60
2014,08,28,00,12,15.60
2014,08,28,00,13,15.60
2014,08,28,00,14,15.60
2014,08,28,00,15,15.60
2014,08,28,00,16,15.60
2014,08,28,00,17,15.60
2014,08,28,00,18,15.60
2014,08,28,00,19,15.50
2014,08,28,00,20,15.50
2014,08,28,00,21,15.50
2014,08,28,00,22,15.50
2014,08,28,00,23,15.50
2014,08,28,00,24,15.50
2014,08,28,00,25,15.50
2014,08,28,00,26,15.40
2014,08,28,00,27,15.50
2014,08,28,00,28,15.50
2014,08,28,00,29,15.50
2014,08,28,00,30,15.50
2014,08,28,00,31,15.60
2014,08,28,00,32,15.60
2014,08,28,00,33,15.60
2014,08,28,00,34,15.60
2014,08,28,00,35,15.60
2014,08,28,00,36,15.60
2014,08,28,00,37,15.60
2014,08,28,00,38,15.60
2014,08,28,00,39,15.60
2014,08,28,00,40,15.60
2014,08,28,00,41,15.60
2014,08,28,00,42,15.60
2014,08,28,00,43,15.60
2014,08,28,00,44,15.70
2014,08,28,00,45,15.70
2014,08,28,00,46,15.70
2014,08,28,00,47,15.70
2014,08,28,00,48,15.70
2014,08,28,00,49,15.70
2014,08,28,00,50,15.70
2014,08,28,00,51,15.70
2014,08,28,00,52,15.70
2014,08,28,00,53,15.80
2014,08,28,00,54,15.80
2014,08,28,00,55,15.80
2014,08,28,00,56,15.80
2014,08,28,00,57,15.80
2014,08,28,00,58,15.80
2014,08,28,00,59,15.80
2014,08,28,01,00,15.80
2014,08,28,01,01,15.80
2014,08,28,01,02,15.80
2014,08,28,01,03,15.80
2014,08,28,01,04,15.80
2014,08,28,01,05,15.80
2014,08,28,01,06,15.80
2014,08,28,01,07,15.80
2014,08,28,01,08,15.80
2014,08,28,01,09,15.80
2014,08,28,01,10,15.80
2014,08,28,01,11,15.90
2014,08,28,01,12,15.90
2014,08,28,01,13,15.90
2014,08,28,01,14,15.90
2014,08,28,01,15,15.90
2014,08,28,01,16,15.90
2014,08,28,01,17,15.90
2014,08,28,01,18,15.90
2014,08,28,01,19,15.90
2014,08,28,01,20,15.90
2014,08,28,01,21,15.90
2014,08,28,01,22,15.90
2014,08,28,01,23,15.90
2014,08,28,01,24,15.90
2014,08,28,01,25,15.90
2014,08,28,01,26,15.90
2014,08,28,01,27,15.90
2014,08,28,01,28,15.90
2014,08,28,01,29,15.90
2014,08,28,01,30,15.90
2014,08,28,01,31,15.90
2014,08,28,01,32,15.90
2014,08,28,01,33,15.90
2014,08,28,01,34,16.00
2014,08,28,01,35,16.00
2014,08,28,01,36,16.10
2014,08,28,01,37,16.10
2014,08,28,01,38,16.10
2014,08,28,01,39,16.10
2014,08,28,01,40,16.10
2014,08,28,01,41,16.20
2014,08,28,01,42,16.20
2014,08,28,01,43,16.20
2014,08,28,01,44,16.20
2014,08,28,01,45,16.20
2014,08,28,01,46,16.20
2014,08,28,01,47,16.20
2014,08,28,01,48,16.20
2014,08,28,01,49,16.30
2014,08,28,01,50,16.30
2014,08,28,01,51,16.20
2014,08,28,01,52,16.20
2014,08,28,01,53,16.20
2014,08,28,01,54,16.20
2014,08,28,01,55,16.20
2014,08,28,01,56,16.20
2014,08,28,01,57,16.20
2014,08,28,01,58,16.20
2014,08,28,01,59,16.20
2014,08,28,02,00,16.20
2014,08,28,02,01,16.20
2014,08,28,02,02,16.20
2014,08,28,02,03,16.20
2014,08,28,02,04,16.20
2014,08,28,02,05,16.20
2014,08,28,02,06,16.20
2014,08,28,02,07,16.20
2014,08,28,02,08,16.20
2014,08,28,02,09,16.20
2014,08,28,02,10,16.20
2014,08,28,02,11,16.20
2014,08,28,02,12,16.20
2014,08,28,02,13,16.20
2014,08,28,02,14,16.20
2014,08,28,02,15,16.20
2014,08,28,02,16,16.20
2014,08,28,02,17,16.30
2014,08,28,02,18,16.30
2014,08,28,02,19,16.30
2014,08,28,02,20,16.30
2014,08,28,02,21,16.30
2014,08,28,02,22,16.30
2014,08,28,02,23,16.30
2014,08,28,02,24,16.30
2014,08,28,02,25,16.30
2014,08,28,02,26,16.30
2014,08,28,02,27,16.30
2014,08,28,02,28,16.30
2014,08,28,02,29,16.30
2014,08,28,02,30,16.30
2014,08,28,02,31,16.30
2014,08,28,02,32,16.30
2014,08,28,02,33,16.30
2014,08,28,02,34,16.30
2014,08,28,02,35,16.30
2014,08,28,02,36,16.40
2014,08,28,02,37,16.40
2014,08,28,02,38,16.40
2014,08,28,02,39,16.40
2014,08,28,02,40,16.50
2014,08,28,02,41,16.50
2014,08,28,02,42,16.50
2014,08,28,02,43,16.60
2014,08,28,02,44,16.60
2014,08,28,02,45,16.60
2014,08,28,02,46,16.60
2014,08,28,02,47,16.60
2014,08,28,02,48,16.60
2014,08,28,02,49,16.60
2014,08,28,02,50,16.60
2014,08,28,02,51,16.60
2014,08,28,02,52,16.60
2014,08,28,02,53,16.60
2014,08,28,02,54,16.60
2014,08,28,02,55,16.50
2014,08,28,02,56,16.50
2014,08,28,02,57,16.50
2014,08,28,02,58,16.50
2014,08,28,02,59,16.50
2014,08,28,03,00,16.50
2014,08,28,03,01,16.50
2014,08,28,03,02,16.50
2014,08,28,03,03,16.50
2014,08,28,03,04,16.50
2014,08,28,03,05,16.60
2014,08,28,03,06,16.60
2014,08,28,03,07,16.60
2014,08,28,03,08,16.60
2014,08,28,03,09,16.70
2014,08,28,03,10,16.70
2014,08,28,03,11,16.70
2014,08,28,03,12,16.70
2014,08,28,03,13,16.70
2014,08,28,03,14,16.70
2014,08,28,03,15,16.70
2014,08,28,03,16,16.70
2014,08,28,03,17,16.70
2014,08,28,03,18,16.70
2014,08,28,03,19,16.70
2014,08,28,03,20,16.70
2014,08,28,03,21,16.70
2014,08,28,03,22,16.70
2014,08,28,03,23,16.70
2014,08,28,03,24,16.70
2014,08,28,03,25,16.70
2014,08,28,03,26,16.70
2014,08,28,03,27,16.70
2014,08,28,03,28,16.70
2014,08,28,03,29,16.70
2014,08,28,03,30,16.70
2014,08,28,03,31,16.70
2014,08,28,03,32,16.70
2014,08,28,03,33,16.70
2014,08,28,03,34,16.70
2014,08,28,03,35,16.70
2014,08,28,03,36,16.70
2014,08,28,03,37,16.70
2014,08,28,03,38,16.70
2014,08,28,03,39,16.70
2014,08,28,03,40,16.70
2014,08,28,03,41,16.70
2014,08,28,03,42,16.70
2014,08,28,03,43,16.70
2014,08,28,03,44,16.70
2014,08,28,03,45,16.70
2014,08,28,03,46,16.80
2014,08,28,03,47,16.80
2014,08,28,03,48,16.80
2014,08,28,03,49,16.80
2014,08,28,03,50,16.80
2014,08,28,03,51,16.70
2014,08,28,03,52,16.70
2014,08,28,03,53,16.70
2014,08,28,03,54,16.70
2014,08,28,03,55,16.70
2014,08,28,03,56,16.70
2014,08,28,03,57,16.70
2014,08,28,03,58,16.70
2014,08,28,03,59,16.70
2014,08,28,04,00,16.70
2014,08,28,04,01,16.70
2014,08,28,04,02,16.70
2014,08,28,04,03,16.70
2014,08,28,04,04,16.70
2014,08,28,04,05,16.70
2014,08,28,04,06,16.60
2014,08,28,04,07,16.60
2014,08,28,04,08,16.60
2014,08,28,04,09,16.60
2014,08,28,04,10,16.60
2014,08,28,04,11,16.60
2014,08,28,04,12,16.60
2014,08,28,04,13,16.60
2014,08,28,04,14,16.60
2014,08,28,04,15,16.60
2014,08,28,04,16,16.60
2014,08,28,04,17,16.60
2014,08,28,04,18,16.60
2014,08,28,04,19,16.60
2014,08,28,04,20,16.60
2014,08,28,04,21,16.60
2014,08,28,04,22,16.60
2014,08,28,04,23,16.60
2014,08,28,04,24,16.60
2014,08,28,04,25,16.60
2014,08,28,04,26,16.60
2014,08,28,04,27,16.60
2014,08,28,04,28,16.70
2014,08,28,04,29,16.70
2014,08,28,04,30,16.70
2014,08,28,04,31,16.70
2014,08,28,04,32,16.70
2014,08,28,04,33,16.70
2014,08,28,04,34,16.70
2014,08,28,04,35,16.70
2014,08,28,04,36,16.70
2014,08,28,04,37,16.70
2014,08,28,04,38,16.70
2014,08,28,04,39,16.70
2014,08,28,04,40,16.70
2014,08,28,04,41,16.70
2014,08,28,04,42,16.70
2014,08,28,04,43,16.70
2014,08,28,04,44,16.70
2014,08,28,04,45,16.70
2014,08,28,04,46,16.80
2014,08,28,04,47,16.80
2014,08,28,04,48,16.80
2014,08,28,04,49,16.80
2014,08,28,04,50,16.80
2014,08,28,04,51,16.80
2014,08,28,04,52,16.80
2014,08,28,04,53,16.80
2014,08,28,04,54,16.80
2014,08,28,04,55,16.80
2014,08,28,04,56,16.80
2014,08,28,04,57,16.80
2014,08,28,04,58,16.80
2014,08,28,04,59,16.80
2014,08,28,05,00,16.80
2014,08,28,05,01,16.80
2014,08,28,05,02,16.80
2014,08,28,05,03,16.80
2014,08,28,05,04,16.80
2014,08,28,05,05,16.80
2014,08,28,05,06,16.80
2014,08,28,05,07,16.80
2014,08,28,05,08,16.70
2014,08,28,05,09,16.70
2014,08,28,05,10,16.70
2014,08,28,05,11,16.70
2014,08,28,05,12,16.70
2014,08,28,05,13,16.70
2014,08,28,05,14,16.70
2014,08,28,05,15,16.70
2014,08,28,05,16,16.70
2014,08,28,05,17,16.70
2014,08,28,05,18,16.70
2014,08,28,05,19,16.70
2014,08,28,05,20,16.70
2014,08,28,05,21,16.60
2014,08,28,05,22,16.60
2014,08,28,05,23,16.60
2014,08,28,05,24,16.60
2014,08,28,05,25,16.60
2014,08,28,05,26,16.60
2014,08,28,05,27,16.60
2014,08,28,05,28,16.60
2014,08,28,05,29,16.60
2014,08,28,05,30,16.60
2014,08,28,05,31,16.60
2014,08,28,05,32,16.60
2014,08,28,05,33,16.60
2014,08,28,05,34,16.60
2014,08,28,05,35,16.60
2014,08,28,05,36,16.60
2014,08,28,05,37,16.60
2014,08,28,05,38,16.60
2014,08,28,05,39,16.50
2014,08,28,05,40,16.50
2014,08,28,05,41,16.50
2014,08,28,05,42,16.50
2014,08,28,05,43,16.50
2014,08,28,05,44,16.50
2014,08,28,05,45,16.50
2014,08,28,05,46,16.50
2014,08,28,05,47,16.50
2014,08,28,05,48,16.40
2014,08,28,05,49,16.40
2014,08,28,05,50,16.40
2014,08,28,05,51,16.40
2014,08,28,05,52,16.40
2014,08,28,05,53,16.40
2014,08,28,05,54,16.40
2014,08,28,05,55,16.40
2014,08,28,05,56,16.40
2014,08,28,05,57,16.40
2014,08,28,05,58,16.30
2014,08,28,05,59,16.30
2014,08,28,06,00,16.30
2014,08,28,06,01,16.30
2014,08,28,06,02,16.30
2014,08,28,06,03,16.30
2014,08,28,06,04,16.30
2014,08,28,06,05,16.30
2014,08,28,06,06,16.30
2014,08,28,06,07,16.30
2014,08,28,06,08,16.30
2014,08,28,06,09,16.30
2014,08,28,06,10,16.30
2014,08,28,06,11,16.30
2014,08,28,06,12,16.30
2014,08,28,06,13,16.30
2014,08,28,06,14,16.30
2014,08,28,06,15,16.30
2014,08,28,06,16,16.30
2014,08,28,06,17,16.30
2014,08,28,06,18,16.30
2014,08,28,06,19,16.40
2014,08,28,06,20,16.40
2014,08,28,06,21,16.40
2014,08,28,06,22,16.40
2014,08,28,06,23,16.40
2014,08,28,06,24,16.40
2014,08,28,06,25,16.40
2014,08,28,06,26,16.40
2014,08,28,06,27,16.40
2014,08,28,06,28,16.40
2014,08,28,06,29,16.50
2014,08,28,06,30,16.50
2014,08,28,06,31,16.50
2014,08,28,06,32,16.50
2014,08,28,06,33,16.50
2014,08,28,06,34,16.50
2014,08,28,06,35,16.60
2014,08,28,06,36,16.60
2014,08,28,06,37,16.60
2014,08,28,06,38,16.60
2014,08,28,06,39,16.60
2014,08,28,06,40,16.60
2014,08,28,06,41,16.60
2014,08,28,06,42,16.60
2014,08,28,06,43,16.60
2014,08,28,06,44,16.60
2014,08,28,06,45,16.60
2014,08,28,06,46,16.70
2014,08,28,06,47,16.70
2014,08,28,06,48,16.70
2014,08,28,06,49,16.70
2014,08,28,06,50,16.70
2014,08,28,06,51,16.70
2014,08,28,06,52,16.70
2014,08,28,06,53,16.80
2014,08,28,06,54,16.80
2014,08,28,06,55,16.80
2014,08,28,06,56,16.80
2014,08,28,06,57,16.80
2014,08,28,06,58,16.80
2014,08,28,06,59,16.90
2014,08,28,07,00,16.90
2014,08,28,07,01,16.90
2014,08,28,07,02,16.90
2014,08,28,07,03,16.90
2014,08,28,07,04,16.90
2014,08,28,07,05,16.90
2014,08,28,07,06,16.90
2014,08,28,07,07,17.00
2014,08,28,07,08,17.00
2014,08,28,07,09,17.00
2014,08,28,07,10,17.00
2014,08,28,07,11,17.10
2014,08,28,07,12,17.10
2014,08,28,07,13,17.10
2014,08,28,07,14,17.10
2014,08,28,07,15,17.10
2014,08,28,07,16,17.10
2014,08,28,07,17,17.10
2014,08,28,07,18,17.10
2014,08,28,07,19,17.10
2014,08,28,07,20,17.10
2014,08,28,07,21,17.10
2014,08,28,07,22,17.10
2014,08,28,07,23,17.10
2014,08,28,07,24,17.10
2014,08,28,07,25,17.10
2014,08,28,07,26,17.10
2014,08,28,07,27,17.10
2014,08,28,07,28,17.10
2014,08,28,07,29,17.10
2014,08,28,07,30,17.10
2014,08,28,07,31,17.10
2014,08,28,07,32,17.10
2014,08,28,07,33,17.10
2014,08,28,07,34,17.10
2014,08,28,07,35,17.10
2014,08,28,07,36,17.10
2014,08,28,07,37,17.10
2014,08,28,07,38,17.10
2014,08,28,07,39,17.10
2014,08,28,07,40,17.10
2014,08,28,07,41,17.10
2014,08,28,07,42,17.10
2014,08,28,07,43,17.10
2014,08,28,07,44,17.10
2014,08,28,07,45,17.10
2014,08,28,07,46,17.10
2014,08,28,07,47,17.10
2014,08,28,07,48,17.10
2014,08,28,07,49,17.10
2014,08,28,07,50,17.10
2014,08,28,07,51,17.10
2014,08,28,07,52,17.10
2014,08,28,07,53,17.10
2014,08,28,07,54,17.10
2014,08,28,07,55,17.10
2014,08,28,07,56,17.10
2014,08,28,07,57,17.10
2014,08,28,07,58,17.10
2014,08,28,07,59,17.10
2014,08,28,08,00,17.10
2014,08,28,08,01,17.10
2014,08,28,08,02,17.10
2014,08,28,08,03,17.10
2014,08,28,08,04,17.10
2014,08,28,08,05,17.10
2014,08,28,08,06,17.10
2014,08,28,08,07,17.10
2014,08,28,08,08,17.10
2014,08,28,08,09,17.10
2014,08,28,08,10,17.10
2014,08,28,08,11,17.10
2014,08,28,08,12,17.10
2014,08,28,08,13,17.10
2014,08,28,08,14,17.20
2014,08,28,08,15,17.20
2014,08,28,08,16,17.20
2014,08,28,08,17,17.20
2014,08,28,08,18,17.20
2014,08,28,08,19,17.20
2014,08,28,08,20,17.20
2014,08,28,08,21,17.20
2014,08,28,08,22,17.20
2014,08,28,08,23,17.20
2014,08,28,08,24,17.20
2014,08,28,08,25,17.20
2014,08,28,08,26,17.20
2014,08,28,08,27,17.20
2014,08,28,08,28,17.20
2014,08,28,08,29,17.20
2014,08,28,08,30,17.20
2014,08,28,08,31,17.20
2014,08,28,08,32,17.20
2014,08,28,08,33,17.20
2014,08,28,08,34,17.20
2014,08,28,08,35,17.20
2014,08,28,08,36,17.20
2014,08,28,08,37,17.20
2014,08,28,08,38,17.20
2014,08,28,08,39,17.30
2014,08,28,08,40,17.30
2014,08,28,08,41,17.30
2014,08,28,08,42,17.30
2014,08,28,08,43,17.30
2014,08,28,08,44,17.30
2014,08,28,08,45,17.30
2014,08,28,08,46,17.30
2014,08,28,08,47,17.30
2014,08,28,08,48,17.30
2014,08,28,08,49,17.30
2014,08,28,08,50,17.30
2014,08,28,08,51,17.40
2014,08,28,08,52,17.40
2014,08,28,08,53,17.40
2014,08,28,08,54,17.40
2014,08,28,08,55,17.40
2014,08,28,08,56,17.40
2014,08,28,08,57,17.40
2014,08,28,08,58,17.40
2014,08,28,08,59,17.50
2014,08,28,09,00,17.50
2014,08,28,09,01,17.50
2014,08,28,09,02,17.50
2014,08,28,09,03,17.50
2014,08,28,09,04,17.50
2014,08,28,09,05,17.50
2014,08,28,09,06,17.60
2014,08,28,09,07,17.60
2014,08,28,09,08,17.60
2014,08,28,09,09,17.60
2014,08,28,09,10,17.60
2014,08,28,09,11,17.60
2014,08,28,09,12,17.70
2014,08,28,09,13,17.70
2014,08,28,09,14,17.70
2014,08,28,09,15,17.70
2014,08,28,09,16,17.70
2014,08,28,09,17,17.70
2014,08,28,09,18,17.70
2014,08,28,09,19,17.70
2014,08,28,09,20,17.70
2014,08,28,09,21,17.80
2014,08,28,09,22,17.80
2014,08,28,09,23,17.80
2014,08,28,09,24,17.80
2014,08,28,09,25,17.80
2014,08,28,09,26,17.80
2014,08,28,09,27,17.80
2014,08,28,09,28,17.80
2014,08,28,09,29,17.80
2014,08,28,09,30,17.80
2014,08,28,09,31,17.80
2014,08,28,09,32,17.80
2014,08,28,09,33,17.80
2014,08,28,09,34,17.80
2014,08,28,09,35,17.80
2014,08,28,09,36,17.80
2014,08,28,09,37,17.80
2014,08,28,09,38,17.90
2014,08,28,09,39,17.90
2014,08,28,09,40,17.90
2014,08,28,09,41,17.90
2014,08,28,09,42,17.90
2014,08,28,09,43,17.90
2014,08,28,09,44,18.00
2014,08,28,09,45,18.00
2014,08,28,09,46,18.00
2014,08,28,09,47,18.10
2014,08,28,09,48,18.10
2014,08,28,09,49,18.10
2014,08,28,09,50,18.10
2014,08,28,09,51,18.10
2014,08,28,09,52,18.20
2014,08,28,09,53,18.20
2014,08,28,09,54,18.20
2014,08,28,09,55,18.20
2014,08,28,09,56,18.20
2014,08,28,09,57,18.20
2014,08,28,09,58,18.20
2014,08,28,09,59,18.20
2014,08,28,10,00,18.30
2014,08,28,10,01,18.30
2014,08,28,10,02,18.30
2014,08,28,10,03,18.30
2014,08,28,10,04,18.40
2014,08,28,10,05,18.40
2014,08,28,10,06,18.50
2014,08,28,10,07,18.50
2014,08,28,10,08,18.60
2014,08,28,10,09,18.60
2014,08,28,10,10,18.60
2014,08,28,10,11,18.60
2014,08,28,10,12,18.60
2014,08,28,10,13,18.60
2014,08,28,10,14,18.70
2014,08,28,10,15,18.70
2014,08,28,10,16,18.70
2014,08,28,10,17,18.70
2014,08,28,10,18,18.70
2014,08,28,10,19,18.70
2014,08,28,10,20,18.80
2014,08,28,10,21,18.80
2014,08,28,10,22,18.80
2014,08,28,10,23,18.80
2014,08,28,10,24,18.80
2014,08,28,10,25,18.80
2014,08,28,10,26,18.80
2014,08,28,10,27,18.90
2014,08,28,10,28,18.90
2014,08,28,10,29,19.00
2014,08,28,10,30,19.00
2014,08,28,10,31,19.00
2014,08,28,10,32,19.10
2014,08,28,10,33,19.10
2014,08,28,10,34,19.10
2014,08,28,10,35,19.10
2014,08,28,10,36,19.10
2014,08,28,10,37,19.00
2014,08,28,10,38,19.00
2014,08,28,10,39,19.00
2014,08,28,10,40,19.10
2014,08,28,10,41,19.10
2014,08,28,10,42,19.10
2014,08,28,10,43,19.10
2014,08,28,10,44,19.10
2014,08,28,10,45,19.10
2014,08,28,10,46,19.10
2014,08,28,10,47,19.10
2014,08,28,10,48,19.20
2014,08,28,10,49,19.20
2014,08,28,10,50,19.30
2014,08,28,10,51,19.30
2014,08,28,10,52,19.40
2014,08,28,10,53,19.50
2014,08,28,10,54,19.60
2014,08,28,10,55,19.60
2014,08,28,10,56,19.70
2014,08,28,10,57,19.80
2014,08,28,10,58,19.90
2014,08,28,10,59,19.90
2014,08,28,11,00,19.90
2014,08,28,11,01,19.90
2014,08,28,11,02,20.00
2014,08,28,11,03,20.00
2014,08,28,11,04,20.00
2014,08,28,11,05,20.00
2014,08,28,11,06,20.00
2014,08,28,11,07,20.00
2014,08,28,11,08,20.00
2014,08,28,11,09,20.00
2014,08,28,11,10,20.00
2014,08,28,11,11,20.10
2014,08,28,11,12,20.10
2014,08,28,11,13,20.10
2014,08,28,11,14,20.10
2014,08,28,11,15,20.10
2014,08,28,11,16,20.10
2014,08,28,11,17,20.20
2014,08,28,11,18,20.20
2014,08,28,11,19,20.30
2014,08,28,11,20,20.40
2014,08,28,11,21,20.40
2014,08,28,11,22,20.40
2014,08,28,11,23,20.50
2014,08,28,11,24,20.60
2014,08,28,11,25,20.60
2014,08,28,11,26,20.60
2014,08,28,11,27,20.60
2014,08,28,11,28,20.50
2014,08,28,11,29,20.50
2014,08,28,11,30,20.40
2014,08,28,11,31,20.40
2014,08,28,11,32,20.40
2014,08,28,11,33,20.40
2014,08,28,11,34,20.30
2014,08,28,11,35,20.40
2014,08,28,11,36,20.40
2014,08,28,11,37,20.50
2014,08,28,11,38,20.50
2014,08,28,11,39,20.50
2014,08,28,11,40,20.50
2014,08,28,11,41,20.60
2014,08,28,11,42,20.60
2014,08,28,11,43,20.60
2014,08,28,11,44,20.70
2014,08,28,11,45,20.70
2014,08,28,11,46,20.70
2014,08,28,11,47,20.70
2014,08,28,11,48,20.70
2014,08,28,11,49,20.80
2014,08,28,11,50,20.90
2014,08,28,11,51,21.00
2014,08,28,11,52,21.10
2014,08,28,11,53,21.20
2014,08,28,11,54,21.30
2014,08,28,11,55,21.40
2014,08,28,11,56,21.40
2014,08,28,11,57,21.50
2014,08,28,11,58,21.60
2014,08,28,11,59,21.60
2014,08,28,12,00,21.60
2014,08,28,12,01,21.60
2014,08,28,12,02,21.70
2014,08,28,12,03,21.80
2014,08,28,12,04,21.80
2014,08,28,12,05,21.80
2014,08,28,12,06,21.80
2014,08,28,12,07,21.70
2014,08,28,12,08,21.70
2014,08,28,12,09,21.70
2014,08,28,12,10,21.80
2014,08,28,12,11,21.90
2014,08,28,12,12,22.00
2014,08,28,12,13,22.10
2014,08,28,12,14,22.20
2014,08,28,12,15,22.30
2014,08,28,12,16,22.40
2014,08,28,12,17,22.30
2014,08,28,12,18,22.20
2014,08,28,12,19,22.20
2014,08,28,12,20,22.30
2014,08,28,12,21,22.40
2014,08,28,12,22,22.30
2014,08,28,12,23,22.30
2014,08,28,12,24,22.40
2014,08,28,12,25,22.40
2014,08,28,12,26,22.30
2014,08,28,12,27,22.30
2014,08,28,12,28,22.30
2014,08,28,12,29,22.30
2014,08,28,12,30,22.30
2014,08,28,12,31,22.30
2014,08,28,12,32,22.30
2014,08,28,12,33,22.40
2014,08,28,12,34,22.50
2014,08,28,12,35,22.50
2014,08,28,12,36,22.50
2014,08,28,12,37,22.50
2014,08,28,12,38,22.50
2014,08,28,12,39,22.60
2014,08,28,12,40,22.60
2014,08,28,12,41,22.60
2014,08,28,12,42,22.60
2014,08,28,12,43,22.50
2014,08,28,12,44,22.50
2014,08,28,12,45,22.40
2014,08,28,12,46,22.40
2014,08,28,12,47,22.40
2014,08,28,12,48,22.30
2014,08,28,12,49,22.30
2014,08,28,12,50,22.30
2014,08,28,12,51,22.10
2014,08,28,12,52,22.00
2014,08,28,12,53,21.90
2014,08,28,12,54,21.80
2014,08,28,12,55,21.80
2014,08,28,12,56,21.80
2014,08,28,12,57,21.80
2014,08,28,12,58,21.80
2014,08,28,12,59,21.80
2014,08,28,13,00,21.80
2014,08,28,13,01,21.80
2014,08,28,13,02,21.70
2014,08,28,13,03,21.60
2014,08,28,13,04,21.50
2014,08,28,13,05,21.40
2014,08,28,13,06,21.30
2014,08,28,13,07,21.30
2014,08,28,13,08,21.30
2014,08,28,13,09,21.20
2014,08,28,13,10,21.20
2014,08,28,13,11,21.30
2014,08,28,13,12,21.30
2014,08,28,13,13,21.40
2014,08,28,13,14,21.50
2014,08,28,13,15,21.60
2014,08,28,13,16,21.80
2014,08,28,13,17,22.00
2014,08,28,13,18,22.20
2014,08,28,13,19,22.40
2014,08,28,13,20,22.60
2014,08,28,13,21,22.80
2014,08,28,13,22,22.90
2014,08,28,13,23,23.00
2014,08,28,13,24,23.00
2014,08,28,13,25,23.00
2014,08,28,13,26,22.90
2014,08,28,13,27,22.90
2014,08,28,13,28,22.90
2014,08,28,13,29,23.00
2014,08,28,13,30,23.10
2014,08,28,13,31,23.10
2014,08,28,13,32,23.20
2014,08,28,13,33,23.20
2014,08,28,13,34,23.20
2014,08,28,13,35,23.10
2014,08,28,13,36,23.10
2014,08,28,13,37,23.00
2014,08,28,13,38,23.10
2014,08,28,13,39,23.10
2014,08,28,13,40,23.20
2014,08,28,13,41,23.30
2014,08,28,13,42,23.40
2014,08,28,13,43,23.50
2014,08,28,13,44,23.50
2014,08,28,13,45,23.50
2014,08,28,13,46,23.40
2014,08,28,13,47,23.40
2014,08,28,13,48,23.40
2014,08,28,13,49,23.30
2014,08,28,13,50,23.30
2014,08,28,13,51,23.40
2014,08,28,13,52,23.40
2014,08,28,13,53,23.40
2014,08,28,13,54,23.40
2014,08,28,13,55,23.40
2014,08,28,13,56,23.50
2014,08,28,13,57,23.50
2014,08,28,13,58,23.60
2014,08,28,13,59,23.60
2014,08,28,14,00,23.70
2014,08,28,14,01,23.70
2014,08,28,14,02,23.80
2014,08,28,14,03,23.80
2014,08,28,14,04,23.90
2014,08,28,14,05,23.90
2014,08,28,14,06,23.90
2014,08,28,14,07,23.90
2014,08,28,14,08,23.90
2014,08,28,14,09,24.00
2014,08,28,14,10,24.10
2014,08,28,14,11,24.20
2014,08,28,14,12,24.30
2014,08,28,14,13,24.30
2014,08,28,14,14,24.30
2014,08,28,14,15,24.20
2014,08,28,14,16,24.20
2014,08,28,14,17,24.20
2014,08,28,14,18,24.10
2014,08,28,14,19,24.10
2014,08,28,14,20,24.20
2014,08,28,14,21,24.30
2014,08,28,14,22,24.40
2014,08,28,14,23,24.50
2014,08,28,14,24,24.50
2014,08,28,14,25,24.40
2014,08,28,14,26,24.30
2014,08,28,14,27,24.30
2014,08,28,14,28,24.30
2014,08,28,14,29,24.30
2014,08,28,14,30,24.30
2014,08,28,14,31,24.30
2014,08,28,14,32,24.40
2014,08,28,14,33,24.50
2014,08,28,14,34,24.70
2014,08,28,14,35,24.80
2014,08,28,14,36,24.70
2014,08,28,14,37,24.70
2014,08,28,14,38,24.60
2014,08,28,14,39,24.50
2014,08,28,14,40,24.40
2014,08,28,14,41,24.40
2014,08,28,14,42,24.40
2014,08,28,14,43,24.30
2014,08,28,14,44,24.20
2014,08,28,14,45,24.10
2014,08,28,14,46,24.10
2014,08,28,14,47,24.10
2014,08,28,14,48,24.10
2014,08,28,14,49,24.10
2014,08,28,14,50,24.10
2014,08,28,14,51,24.20
2014,08,28,14,52,24.30
2014,08,28,14,53,24.40
2014,08,28,14,54,24.30
2014,08,28,14,55,24.30
2014,08,28,14,56,24.30
2014,08,28,14,57,24.30
2014,08,28,14,58,24.20
2014,08,28,14,59,24.20
2014,08,28,15,00,24.30
2014,08,28,15,01,24.30
2014,08,28,15,02,24.30
2014,08,28,15,03,24.30
2014,08,28,15,04,24.30
2014,08,28,15,05,24.30
2014,08,28,15,06,24.30
2014,08,28,15,07,24.40
2014,08,28,15,08,24.40
2014,08,28,15,09,24.50
2014,08,28,15,10,24.40
2014,08,28,15,11,24.40
2014,08,28,15,12,24.40
2014,08,28,15,13,24.40
2014,08,28,15,14,24.30
2014,08,28,15,15,24.30
2014,08,28,15,16,24.30
2014,08,28,15,17,24.30
2014,08,28,15,18,24.20
2014,08,28,15,19,24.20
2014,08,28,15,20,24.20
2014,08,28,15,21,24.20
2014,08,28,15,22,24.20
2014,08,28,15,23,24.20
2014,08,28,15,24,24.20
2014,08,28,15,25,24.20
2014,08,28,15,26,24.30
2014,08,28,15,27,24.30
2014,08,28,15,28,24.30
2014,08,28,15,29,24.30
2014,08,28,15,30,24.30
2014,08,28,15,31,24.30
2014,08,28,15,32,24.30
2014,08,28,15,33,24.20
2014,08,28,15,34,24.30
2014,08,28,15,35,24.20
2014,08,28,15,36,24.20
2014,08,28,15,37,24.20
2014,08,28,15,38,24.20
2014,08,28,15,39,24.20
2014,08,28,15,40,24.20
2014,08,28,15,41,24.20
2014,08,28,15,42,24.10
2014,08,28,15,43,24.10
2014,08,28,15,44,24.10
2014,08,28,15,45,24.10
2014,08,28,15,46,24.10
2014,08,28,15,47,24.10
2014,08,28,15,48,24.10
2014,08,28,15,49,24.20
2014,08,28,15,50,24.40
2014,08,28,15,51,24.40
2014,08,28,15,52,24.50
2014,08,28,15,53,24.50
2014,08,28,15,54,24.60
2014,08,28,15,55,24.60
2014,08,28,15,56,24.60
2014,08,28,15,57,24.60
2014,08,28,15,58,24.70
2014,08,28,15,59,24.70
2014,08,28,16,00,24.70
2014,08,28,16,01,24.80
2014,08,28,16,02,24.80
2014,08,28,16,03,24.80
2014,08,28,16,04,24.80
2014,08,28,16,05,24.80
2014,08,28,16,06,24.80
2014,08,28,16,07,24.70
2014,08,28,16,08,24.70
2014,08,28,16,09,24.70
2014,08,28,16,10,24.70
2014,08,28,16,11,24.70
2014,08,28,16,12,24.70
2014,08,28,16,13,24.70
2014,08,28,16,14,24.60
2014,08,28,16,15,24.60
2014,08,28,16,16,24.60
2014,08,28,16,17,24.60
2014,08,28,16,18,24.60
2014,08,28,16,19,24.70
2014,08,28,16,20,24.80
2014,08,28,16,21,24.90
2014,08,28,16,22,24.80
2014,08,28,16,23,24.70
2014,08,28,16,24,24.70
2014,08,28,16,25,24.70
2014,08,28,16,26,24.70
2014,08,28,16,27,24.80
2014,08,28,16,28,24.80
2014,08,28,16,29,24.80
2014,08,28,16,30,24.90
2014,08,28,16,31,24.90
2014,08,28,16,32,24.90
2014,08,28,16,33,24.90
2014,08,28,16,34,24.80
2014,08,28,16,35,24.80
2014,08,28,16,36,24.70
2014,08,28,16,37,24.60
2014,08,28,16,38,24.50
2014,08,28,16,39,24.50
2014,08,28,16,40,24.50
2014,08,28,16,41,24.50
2014,08,28,16,42,24.40
2014,08,28,16,43,24.30
2014,08,28,16,44,24.30
2014,08,28,16,45,24.30
2014,08,28,16,46,24.30
2014,08,28,16,47,24.30
2014,08,28,16,48,24.40
2014,08,28,16,49,24.40
2014,08,28,16,50,24.30
2014,08,28,16,51,24.30
2014,08,28,16,52,24.30
2014,08,28,16,53,24.30
2014,08,28,16,54,24.30
2014,08,28,16,55,24.30
2014,08,28,16,56,24.30
2014,08,28,16,57,24.40
2014,08,28,16,58,24.40
2014,08,28,16,59,24.30
2014,08,28,17,00,24.30
2014,08,28,17,01,24.30
2014,08,28,17,02,24.30
2014,08,28,17,03,24.30
2014,08,28,17,04,24.30
2014,08,28,17,05,24.40
2014,08,28,17,06,24.30
2014,08,28,17,07,24.30
2014,08,28,17,08,24.30
2014,08,28,17,09,24.40
2014,08,28,17,10,24.30
2014,08,28,17,11,24.40
2014,08,28,17,12,24.40
2014,08,28,17,13,24.30
2014,08,28,17,14,24.20
2014,08,28,17,15,24.20
2014,08,28,17,16,24.20
2014,08,28,17,17,24.20
2014,08,28,17,18,24.20
2014,08,28,17,19,24.20